GW4799 Weather Reports


Display with metric or nautical units.
time (UTC)temp
F
wind
direction
speed
MPH
gust
MPH
rain 1hr
in
rain 24hr
in
rain mn
in
humidity
%
barometer
mb
20260504050515 56 341 6.0 11.0 0.00 0.90 0.67 84 1013.1
20260504050023 56 342 8.0 11.0 0.00 0.90 0.67 85 1012.9
20260504045513 56 347 7.0 11.0 0.00 0.90 0.67 88 1013.0
20260504045012 56 348 7.0 11.0 0.00 0.90 0.67 89 1013.1
20260504044522 56 348 7.0 11.0 0.00 0.90 0.67 89 1013.0
20260504044012 56 349 7.0 11.0 0.00 0.90 0.67 90 1012.9
20260504043522 56 352 8.0 11.0 0.00 0.90 0.67 92 1013.0
20260504043032 56 348 8.0 12.0 0.00 0.90 0.67 91 1013.0
20260504042523 56 345 7.0 13.0 0.00 0.90 0.67 91 1013.0
20260504042014 56 349 8.0 13.0 0.00 0.90 0.67 95 1013.0
20260504041512 57 349 6.0 11.0 0.00 0.90 0.67 93 1013.0
20260504041012 57 334 6.0 11.0 0.00 0.90 0.66 84 1013.0
20260504040532 58 330 7.0 12.0 0.00 0.90 0.66 83 1012.8
20260504040021 57 335 8.0 12.0 0.00 0.90 0.66 85 1012.7
20260504035512 57 339 7.0 12.0 0.00 0.90 0.66 91 1012.9
20260504035032 58 339 7.0 10.0 0.00 0.90 0.66 90 1012.7
20260504034512 58 342 10.0 15.0 0.00 0.90 0.66 88 1012.8
20260504034011 57 339 8.0 15.0 0.00 0.90 0.66 92 1012.8
20260504033528 58 333 9.0 15.0 0.00 0.90 0.66 92 1012.9
20260504033022 58 326 10.0 18.0 0.00 0.90 0.66 90 1013.0
20260504032527 57 325 11.0 18.0 0.01 0.90 0.66 96 1013.0
20260504032013 58 334 9.0 15.0 0.01 0.90 0.66 95 1013.0
20260504031532 58 332 10.0 15.0 0.01 0.90 0.66 93 1012.9
20260504031012 58 328 11.0 16.0 0.01 0.90 0.66 96 1012.9
20260504030523 58 322 10.0 16.0 0.01 0.90 0.66 96 1012.8
20260504030033 59 321 8.0 13.0 0.01 0.90 0.66 97 1013.1
20260504025513 59 336 7.0 11.0 0.01 0.90 0.66 94 1013.0
20260504025022 59 345 6.0 10.0 0.01 0.90 0.66 94 1013.0
20260504024523 58 346 6.0 10.0 0.01 0.90 0.66 94 1012.9
20260504024022 58 353 6.0 11.0 0.01 0.90 0.66 94 1013.0
20260504023512 58 344 6.0 11.0 0.02 0.90 0.66 99 1013.0
20260504023022 59 335 7.0 14.0 0.02 0.90 0.66 99 1013.2
20260504022512 59 338 8.0 14.0 0.02 0.89 0.66 94 1013.2
20260504022022 59 341 8.0 14.0 0.02 0.89 0.65 94 1013.4
20260504021522 59 343 6.0 10.0 0.02 0.89 0.65 97 1013.3
20260504021013 59 343 6.0 10.0 0.02 0.89 0.65 100 1013.5
20260504020517 59 340 7.0 11.0 0.02 0.89 0.65 99 1013.6
20260504020033 59 341 8.0 13.0 0.02 0.89 0.65 100 1013.7
20260504015512 59 337 8.0 13.0 0.02 0.89 0.65 98 1013.7
20260504015022 59 334 8.0 12.0 0.02 0.89 0.65 98 1013.9
20260504014512 59 2 8.0 12.0 0.02 0.89 0.65 100 1013.8
20260504014022 58 1 7.0 13.0 0.02 0.89 0.65 100 1013.6
20260504013521 59 338 7.0 13.0 0.00 0.88 0.64 95 1014.0
20260504013012 59 334 7.0 11.0 0.00 0.88 0.64 97 1014.2
20260504012522 60 326 9.0 16.0 0.00 0.88 0.64 94 1014.1
20260504012022 59 331 9.0 16.0 0.01 0.88 0.64 97 1014.1
20260504011512 59 342 9.0 15.0 0.01 0.88 0.64 94 1014.2
20260504011021 59 337 10.0 19.0 0.03 0.88 0.64 94 1014.3
20260504010513 58 339 12.0 19.0 0.04 0.87 0.64 98 1014.3
20260504010022 58 345 12.0 19.0 0.04 0.87 0.64 98 1014.3
20260504005511 58 346 10.0 17.0 0.04 0.87 0.64 100 1014.4
20260504005013 59 343 9.0 15.0 0.04 0.87 0.64 96 1014.4
20260504004522 58 340 9.0 15.0 0.04 0.87 0.64 100 1014.5
20260504004023 58 339 9.0 15.0 0.04 0.87 0.64 100 1014.4
20260504003532 58 339 10.0 18.0 0.05 0.87 0.64 96 1014.5
20260504003022 59 344 11.0 18.0 0.06 0.87 0.64 98 1014.6
20260504002522 59 342 10.0 18.0 0.07 0.87 0.64 97 1014.6
20260504002012 59 325 11.0 18.0 0.09 0.87 0.63 98 1014.6
20260504001532 59 337 11.0 18.0 0.09 0.86 0.63 98 1014.4
20260504001022 59 337 7.0 13.0 0.13 0.84 0.61 97 1014.6
20260504000511 58 337 5.0 11.0 0.13 0.83 0.60 100 1014.4
20260504000022 58 340 6.0 11.0 0.14 0.83 0.60 100 1014.4
20260503235522 58 336 8.0 18.0 0.14 0.83 0.60 100 1014.5
20260503235013 58 333 8.0 18.0 0.14 0.83 0.60 100 1014.4
20260503234512 59 329 7.0 14.0 0.14 0.83 0.60 99 1014.2
20260503234013 59 327 6.0 10.0 0.13 0.83 0.60 99 1014.4
20260503233511 59 334 6.0 10.0 0.13 0.83 0.59 98 1014.5
20260503233022 59 345 7.0 10.0 0.11 0.81 0.57 98 1014.4
20260503232521 59 344 7.0 11.0 0.11 0.81 0.57 97 1014.4
20260503232023 59 332 7.0 13.0 0.08 0.78 0.55 97 1014.6
20260503231522 59 319 8.0 14.0 0.07 0.77 0.53 98 1014.6
20260503231012 59 333 7.0 14.0 0.02 0.71 0.48 98 1014.6
20260503230522 59 338 8.0 14.0 0.01 0.71 0.47 98 1014.6
20260503230022 59 340 9.0 14.0 0.12 0.70 0.46 98 1014.5
20260503225511 59 342 10.0 15.0 0.13 0.70 0.46 97 1014.5
20260503225012 59 337 9.0 15.0 0.12 0.68 0.44 97 1014.5
20260503224512 59 337 8.0 13.0 0.12 0.67 0.44 98 1014.5
20260503224012 59 346 8.0 16.0 0.12 0.67 0.43 98 1014.5
20260503223522 58 4 9.0 16.0 0.12 0.66 0.43 99 1014.5
20260503223022 59 11 7.0 12.0 0.11 0.66 0.42 97 1014.4
20260503222512 59 4 7.0 11.0 0.10 0.65 0.41 98 1014.3
20260503222035 58 354 7.0 10.0 0.09 0.63 0.40 98 1014.3
20260503221521 58 358 6.0 10.0 0.09 0.63 0.39 98 1014.3
20260503221012 58 4 8.0 12.0 0.08 0.63 0.39 98 1014.4
20260503220521 58 358 7.0 12.0 0.08 0.62 0.39 99 1014.2
20260503220022 58 353 5.0 9.0 0.04 0.58 0.34 99 1014.3
20260503215522 58 349 7.0 13.0 0.03 0.57 0.33 98 1014.4
20260503215012 58 351 6.0 13.0 0.02 0.56 0.32 99 1014.3
20260503214511 58 344 6.0 9.0 0.02 0.56 0.31 98 1014.4
20260503214016 58 341 7.0 13.0 0.01 0.55 0.31 99 1014.4
20260503213521 58 344 7.0 13.0 0.01 0.56 0.31 98 1014.3
20260503213022 58 350 8.0 13.0 0.01 0.57 0.31 100 1014.3
20260503212511 58 354 7.0 13.0 0.01 0.58 0.31 100 1014.2
20260503212022 57 350 6.0 13.0 0.01 0.59 0.31 100 1014.1
20260503211512 57 348 7.0 11.0 0.01 0.62 0.31 100 1014.2
20260503211021 57 339 5.0 11.0 0.01 0.62 0.31 100 1014.2
20260503210511 58 342 6.0 11.0 0.01 0.62 0.31 98 1014.1
20260503210022 58 351 5.0 10.0 0.01 0.62 0.31 97 1014.2
20260503205511 57 344 5.0 10.0 0.00 0.61 0.30 100 1014.0
20260503205022 57 342 5.0 10.0 0.00 0.61 0.30 100 1014.0
20260503204522 57 344 6.0 9.0 0.00 0.61 0.30 100 1014.0
20260503204012 57 346 6.0 8.0 0.00 0.61 0.30 100 1013.9
20260503203512 57 348 5.0 7.0 0.00 0.61 0.30 100 1013.9
20260503203023 57 348 6.0 11.0 0.00 0.61 0.30 100 1013.9
20260503202512 57 351 5.0 11.0 0.00 0.61 0.30 100 1013.9
20260503202023 57 355 5.0 9.0 0.00 0.61 0.30 100 1013.7
20260503201531 57 346 4.0 6.0 0.01 0.61 0.30 100 1013.7
20260503201011 57 343 3.0 6.0 0.02 0.61 0.30 100 1013.8
20260503200513 57 335 3.0 5.0 0.03 0.61 0.30 100 1013.8
20260503200012 57 332 5.0 9.0 0.04 0.61 0.30 100 1013.9
20260503195511 57 341 5.0 9.0 0.09 0.61 0.30 100 1013.8
20260503195012 57 347 4.0 7.0 0.11 0.61 0.30 100 1013.8
20260503194521 57 345 3.0 6.0 0.11 0.61 0.30 100 1013.8
20260503194013 57 332 4.0 7.0 0.11 0.61 0.30 100 1013.8
20260503193521 57 331 4.0 7.0 0.11 0.61 0.30 99 1014.0
20260503193022 57 329 3.0 5.0 0.11 0.61 0.30 99 1014.0
20260503192512 57 330 3.0 6.0 0.10 0.61 0.30 100 1013.9
20260503192022 57 331 4.0 7.0 0.10 0.61 0.29 99 1013.9
20260503191511 57 324 5.0 9.0 0.11 0.60 0.29 99 1013.9
20260503191022 57 328 6.0 9.0 0.11 0.60 0.28 99 1014.1
20260503190522 57 339 6.0 12.0 0.09 0.58 0.26 99 1014.2
20260503190045 57 342 6.0 12.0 0.08 0.57 0.26 99 1014.1
20260503185512 57 349 6.0 9.0 0.02 0.52 0.20 99 1014.2
20260503185012 57 344 5.0 9.0 0.01 0.50 0.19 100 1014.3
20260503184523 56 345 5.0 8.0 0.01 0.50 0.19 100 1014.2
20260503184021 57 337 3.0 6.0 0.01 0.50 0.19 100 1014.3
20260503183521 57 328 4.0 7.0 0.01 0.50 0.19 100 1014.3
20260503183014 58 336 4.0 7.0 0.01 0.50 0.19 97 1014.4
20260503182521 58 341 4.0 7.0 0.01 0.50 0.19 97 1014.5
20260503182012 58 339 5.0 8.0 0.01 0.50 0.19 97 1014.5
20260503181523 57 337 5.0 8.0 0.01 0.50 0.18 100 1014.6
20260503181022 57 320 5.0 9.0 0.01 0.49 0.18 100 1014.7
20260503180522 57 310 4.0 9.0 0.03 0.49 0.18 100 1014.6
20260503180012 57 319 5.0 9.0 0.04 0.49 0.18 100 1014.6
20260503175512 57 328 6.0 11.0 0.05 0.49 0.18 100 1014.7
20260503175012 58 337 7.0 11.0 0.05 0.49 0.18 97 1014.7
20260503174512 58 341 7.0 10.0 0.05 0.49 0.18 97 1014.6
20260503174022 57 348 6.0 10.0 0.05 0.49 0.18 100 1014.6
20260503173521 57 358 6.0 10.0 0.05 0.49 0.18 100 1014.7
20260503173012 57 7 6.0 10.0 0.06 0.49 0.18 100 1014.6
20260503172512 57 9 6.0 10.0 0.06 0.49 0.18 100 1014.7
20260503172022 58 355 7.0 11.0 0.06 0.49 0.18 97 1014.5
20260503171511 58 346 8.0 11.0 0.07 0.49 0.17 97 1014.7
20260503171012 58 345 6.0 9.0 0.06 0.48 0.17 97 1014.7
20260503170512 58 343 5.0 9.0 0.05 0.46 0.15 97 1014.9
20260503150512 58 349 9.0 14.0 0.06 0.37 0.06 94 1016.0
20260503131012 59 11 2.0 4.0 0.01 0.30 0.30 98 1016.4
20260503130512 59 8 2.0 4.0 0.01 0.30 0.30 98 1016.4
20260503110515 58 4 2.0 3.0 0.01 0.29 0.29 100 1016.7
20260503081512 60 327 7.0 16.0 0.02 0.11 0.11 96 1016.9
20260503081022 61 323 6.0 9.0 0.00 0.09 0.09 96 1017.0
20260503080512 61 323 4.0 8.0 0.00 0.09 0.09 94 1016.6
20260503072523 59 312 3.0 4.0 0.01 0.09 0.09 100 1016.4
20260503072022 59 318 3.0 4.0 0.01 0.09 0.09 100 1016.4
20260503071521 59 315 4.0 7.0 0.01 0.09 0.09 100 1016.3
20260503071022 59 311 5.0 7.0 0.01 0.09 0.09 100 1016.4
20260503070521 59 320 6.0 12.0 0.01 0.09 0.09 100 1016.4